DW4188 Victoria Point QNL AU current weather conditions

sailwx.info

Wind from 221

Air temperature 21.7° C
Dewpoint 13.8° C

Last reported at 2015-Jan-28 19:40 UTC.
Time now 2015-Jan-28 20:12 UTC

Location: S 27°35' E 153°18'.
View on Google Maps.

See reports from other nearby stations

  
Tides and Currents Weather Stations Pressure Air Temp Water Temp Dewpoint Dewpoint Depression Visibility Wind Speed Wind Dir Waves Ship Positions
date/time (UTC)wind fromknots sea level pressurealtimeterstation pressurevisibilityair tempwater tempwave heightnotes
2015-Jan-28 19:40 221 21.7
2015-Jan-28 19:04 22.2
2015-Jan-28 18:55 225 22.2
2015-Jan-28 18:46 225 22.2
2015-Jan-28 18:37 248 22.2
2015-Jan-28 18:28 225 22.2
2015-Jan-28 18:19 225 22.2
2015-Jan-28 18:01 203 21.7
2015-Jan-28 17:52 225 21.7
2015-Jan-28 17:25 238 0 gusting 2 21.7
2015-Jan-28 17:16 207 22.2
2015-Jan-28 17:07 226 21.7
2015-Jan-28 16:58 186 22.2
2015-Jan-28 16:49 158 21.7
2015-Jan-28 16:40 203 22.2
2015-Jan-28 16:31 22.2
2015-Jan-28 16:22 197 22.2
2015-Jan-28 16:13 150 22.2
2015-Jan-28 16:04 22.2
2015-Jan-28 15:55 239 22.8
2015-Jan-28 15:46 238 0 gusting 1 22.8
2015-Jan-28 15:28 259 1 gusting 2 22.8
2015-Jan-28 15:19 241 0 gusting 2 23.3
2015-Jan-28 15:10 222 1 gusting 2 22.8
2015-Jan-28 14:52 165 22.8
2015-Jan-28 14:43 162 22.2
2015-Jan-28 14:25 159 22.2
2015-Jan-28 14:16 152 0 gusting 3 22.8
2015-Jan-28 14:07 158 0 gusting 3 22.8
2015-Jan-28 13:49 163 22.2
2015-Jan-28 13:40 158 22.2
2015-Jan-28 13:31 162 22.8
2015-Jan-28 13:13 22.2
2015-Jan-28 12:55 150 0 gusting 3 22.8
2015-Jan-28 12:46 164 22.8
2015-Jan-28 12:37 156 1 gusting 3 22.2
2015-Jan-28 12:01 162 1 gusting 4 22.8
2015-Jan-28 11:52 158 0 gusting 5 22.8
2015-Jan-28 11:43 162 1 gusting 4 22.8
2015-Jan-28 11:25 156 2 gusting 6 22.2
2015-Jan-28 11:16 156 2 gusting 7 22.8
2015-Jan-28 11:07 157 5 gusting 7 22.8
2015-Jan-28 10:58 150 3 gusting 7 22.8
2015-Jan-28 10:49 159 2 gusting 9 22.8
2015-Jan-28 10:40 150 2 gusting 8 22.8
2015-Jan-28 10:31 156 3 gusting 8 22.8
2015-Jan-28 10:13 162 3 gusting 7 22.8
2015-Jan-28 09:55 161 0 gusting 6 22.8
2015-Jan-28 09:37 148 0 gusting 9 23.3
2015-Jan-28 09:28 156 4 gusting 11 23.3
2015-Jan-28 09:19 148 5 gusting 11 23.3
2015-Jan-28 09:10 163 4 gusting 9 23.3
2015-Jan-28 08:43 157 1 gusting 5 23.3
2015-Jan-28 08:16 164 5 gusting 6 23.9
2015-Jan-28 08:07 156 3 gusting 11 23.9
2015-Jan-28 07:49 159 7 gusting 12 23.9
2015-Jan-28 07:40 158 5 gusting 13 24.4
2015-Jan-28 07:31 157 4 gusting 13 24.4
2015-Jan-28 06:55 164 1 gusting 7 25.0
2015-Jan-28 05:43 152 10 gusting 11 25.6
2015-Jan-28 05:34 155 5 gusting 12 25.0
2015-Jan-28 05:25 152 4 gusting 11 25.0
2015-Jan-28 05:07 153 9 gusting 18 24.4
2015-Jan-28 04:49 154 11 gusting 16 23.9
2015-Jan-28 04:22 146 6 gusting 13 24.4
2015-Jan-28 04:13 136 8 gusting 8 24.4
2015-Jan-28 03:55 158 4 gusting 8 25.0
2015-Jan-28 03:46 158 4 gusting 6 25.6
2015-Jan-28 03:37 156 4 gusting 6 25.6
2015-Jan-28 03:28 125 4 gusting 6 25.6
2015-Jan-28 03:19 153 4 gusting 13 25.6
2015-Jan-28 03:01 158 4 gusting 4 25.6
2015-Jan-28 02:52 158 5 gusting 8 25.6
2015-Jan-28 02:43 158 6 gusting 5 25.6
2015-Jan-28 02:25 158 3 gusting 8 26.1
2015-Jan-28 02:16 158 4 gusting 6 25.6
2015-Jan-28 01:58 158 6 gusting 3 25.6
2015-Jan-28 01:40 158 4 gusting 6 25.0
2015-Jan-28 01:31 158 6 gusting 7 25.0
2015-Jan-28 01:22 158 6 gusting 7 25.0
2015-Jan-28 01:13 158 6 gusting 7 25.0
2015-Jan-28 00:28 150 3 gusting 11 23.3
2015-Jan-28 00:19 158 5 gusting 11 23.3
2015-Jan-28 00:10 158 6 gusting 9 23.9
2015-Jan-27 23:43 147 5 gusting 6 22.8
2015-Jan-27 23:25 168 0 gusting 2 22.8
2015-Jan-27 23:07 172 0 gusting 4 22.2
2015-Jan-27 22:58 175 1 gusting 2 22.2
2015-Jan-27 22:49 155 4 gusting 7 21.7
2015-Jan-27 22:40 156 3 gusting 5 21.7
2015-Jan-27 22:31 111 3 gusting 4 21.7
2015-Jan-27 22:22 111 3 gusting 4 21.7
2015-Jan-27 22:13 111 3 gusting 4 21.7
2015-Jan-27 22:04 111 3 gusting 4 21.1
2015-Jan-27 21:46 111 3 gusting 4 21.1
2015-Jan-27 21:28 111 3 gusting 4 21.1
2015-Jan-27 20:52 111 3 gusting 4 21.1
2015-Jan-27 20:43 111 3 gusting 4 21.1
2015-Jan-27 20:34 111 3 gusting 4 21.1
2015-Jan-27 20:25 111 3 gusting 4 21.1
2015-Jan-27 20:16 111 3 gusting 4 21.1
2015-Jan-27 19:49 111 3 gusting 4 21.1
2015-Jan-27 19:40 111 3 gusting 4 21.1
2015-Jan-27 19:31 111 3 gusting 4 21.7
2015-Jan-27 19:13 111 3 gusting 4 21.1
2015-Jan-27 18:46 111 3 gusting 4 21.1
2015-Jan-27 18:37 111 3 gusting 4 21.1
2015-Jan-27 18:28 111 3 gusting 4 21.7
2015-Jan-27 18:19 111 3 gusting 4 21.7
2015-Jan-27 18:10 111 3 gusting 4 21.7
2015-Jan-27 18:01 111 3 gusting 4 21.7
2015-Jan-27 17:52 111 3 gusting 4 21.7
2015-Jan-27 17:43 111 3 gusting 4 21.1
2015-Jan-27 17:34 111 3 gusting 4 21.1
2015-Jan-27 17:25 111 3 gusting 4 21.7
2015-Jan-27 17:07 111 3 gusting 4 21.7
2015-Jan-27 16:49 111 3 gusting 4 21.7
2015-Jan-27 16:40 111 3 gusting 4 21.7
2015-Jan-27 16:22 111 3 gusting 4 21.7
2015-Jan-27 16:13 111 3 gusting 4 21.7
2015-Jan-27 16:04 111 3 gusting 4 21.7
2015-Jan-27 15:46 111 3 gusting 4 21.7
2015-Jan-27 15:28 111 3 gusting 4 21.7
2015-Jan-27 15:19 111 3 gusting 4 21.7
2015-Jan-27 14:52 111 3 gusting 4 22.2
2015-Jan-27 14:43 111 3 gusting 4 22.2
2015-Jan-27 14:07 111 3 gusting 4 23.3
2015-Jan-27 13:58 111 3 gusting 4 23.3
2015-Jan-27 13:49 111 3 gusting 4 23.9
2015-Jan-27 13:40 111 3 gusting 4 24.4
2015-Jan-27 13:22 111 3 gusting 4 23.9
2015-Jan-27 13:13 111 3 gusting 4 24.4
2015-Jan-27 13:04 111 3 gusting 4 24.4
2015-Jan-27 12:55 111 3 gusting 4 24.4
2015-Jan-27 12:46 111 3 gusting 4 24.4
2015-Jan-27 12:28 111 3 gusting 4 24.4
2015-Jan-27 12:19 111 3 gusting 4 24.4
2015-Jan-27 12:01 111 3 gusting 4 25.0
2015-Jan-27 11:52 111 3 gusting 4 25.0
2015-Jan-27 11:43 111 3 gusting 4 25.0
2015-Jan-27 11:34 111 3 gusting 4 25.0
2015-Jan-27 10:58 111 3 gusting 4 26.1
2015-Jan-27 10:49 111 3 gusting 4 25.6
2015-Jan-27 10:22 111 3 gusting 4 25.6
2015-Jan-27 10:13 111 3 gusting 4 25.6
2015-Jan-27 10:04 111 3 gusting 4 25.6
2015-Jan-27 09:55 111 3 gusting 4 25.6
2015-Jan-27 09:46 111 3 gusting 4 25.6
2015-Jan-27 09:37 111 3 gusting 4 25.6
2015-Jan-27 09:28 111 3 gusting 4 25.6
2015-Jan-27 08:52 111 3 gusting 4 26.1
2015-Jan-27 08:43 111 3 gusting 4 26.1
2015-Jan-27 08:25 111 3 gusting 4 26.1
2015-Jan-27 07:58 111 3 gusting 4 26.7
2015-Jan-27 07:49 111 3 gusting 4 26.7
2015-Jan-27 07:40 111 3 gusting 4 27.2
2015-Jan-27 07:31 111 3 gusting 4 27.2
2015-Jan-27 07:13 111 3 gusting 4 27.2
2015-Jan-27 06:55 111 3 gusting 4 27.8
2015-Jan-27 06:46 111 3 gusting 4 27.8
2015-Jan-27 05:43 111 3 gusting 4 28.9
2015-Jan-27 05:34 111 3 gusting 4 28.9
2015-Jan-27 05:16 111 3 gusting 4 29.4
2015-Jan-27 05:07 111 3 gusting 4 29.4
2015-Jan-27 04:58 111 3 gusting 4 29.4
2015-Jan-27 04:49 111 3 gusting 4 29.4
2015-Jan-27 04:31 111 3 gusting 4 30.0
2015-Jan-27 04:22 111 3 gusting 4 29.4
2015-Jan-27 04:13 111 3 gusting 4 30.0
2015-Jan-27 04:04 111 3 gusting 4 30.0
2015-Jan-27 03:55 111 3 gusting 4 30.0
2015-Jan-27 03:46 111 3 gusting 4 29.4
2015-Jan-27 03:37 111 3 gusting 4 29.4
2015-Jan-27 03:28 111 3 gusting 4 30.0
2015-Jan-27 03:19 111 3 gusting 4 30.0
2015-Jan-27 03:10 111 3 gusting 4 30.0
2015-Jan-27 03:01 111 3 gusting 4 29.4
2015-Jan-27 02:52 111 3 gusting 4 29.4
2015-Jan-27 02:43 111 3 gusting 4 29.4
2015-Jan-27 02:16 111 3 gusting 4 30.0
2015-Jan-27 02:07 111 3 gusting 4 30.0
2015-Jan-27 01:58 111 3 gusting 4 29.4
2015-Jan-27 01:49 111 3 gusting 4 30.0
2015-Jan-27 01:40 111 3 gusting 4 30.0
2015-Jan-27 01:13 111 3 gusting 4 28.9
2015-Jan-27 01:04 111 3 gusting 4 28.9
2015-Jan-27 00:55 111 3 gusting 4 28.3
2015-Jan-27 00:46 111 3 gusting 4 27.8
2015-Jan-27 00:28 111 3 gusting 4 27.8
2015-Jan-27 00:19 111 3 gusting 4 27.2
2015-Jan-27 00:10 111 3 gusting 4 26.7
2015-Jan-27 00:01 111 3 gusting 4 26.7
2015-Jan-26 23:52 111 3 gusting 4 26.7
2015-Jan-26 23:43 111 3 gusting 4 26.7
2015-Jan-26 23:25 111 3 gusting 4 28.3
2015-Jan-26 23:16 111 3 gusting 4 27.8
2015-Jan-26 23:07 111 3 gusting 4 27.8
2015-Jan-26 22:40 111 3 gusting 4 28.3
2015-Jan-26 22:22 111 3 gusting 4 28.3
2015-Jan-26 22:13 111 3 gusting 4 28.3
2015-Jan-26 21:55 142 3 gusting 6 27.8
2015-Jan-26 21:37 109 1 gusting 9 27.8
2015-Jan-26 21:28 100 5 gusting 9 27.8
2015-Jan-26 21:19 102 3 gusting 5 27.8
2015-Jan-26 21:01 102 3 gusting 5 27.2
2015-Jan-26 20:52 094 1 gusting 5 26.7
2015-Jan-26 20:43 091 3 gusting 5 26.7
2015-Jan-26 20:34 119 3 gusting 5 26.1
2015-Jan-26 20:25 097 0 gusting 5 26.1